Weather History for Guernsey, United Kingdom

Change the Weather History Date:

Saturday, February 2, 2013

  Actual Average Record
Temperature  
Mean Temperature 42 °F -  
Max Temperature 43 °F 46 °F 55 °F (2002)
Min Temperature 40 °F 40 °F 28 °F (2009)
Degree Days  
Heating Degree Days 23    
Moisture  
Dew Point 34 °F    
Average Humidity 71    
Maximum Humidity 84    
Minimum Humidity 56    
Precipitation  
Precipitation 0.00 in - - ()
Sea Level Pressure  
Sea Level Pressure 30.08 in    
Wind  
Wind Speed 18 mph ()    
Max Wind Speed 24 mph    
Max Gust Speed 34 mph    
Visibility 6.8 miles    
Events Rain    
Averages and records for this station are not official NWS values.
T = Trace of Precipitation, MM = Missing Value Source: Averaged Metar Reports

Daily Weather History Graph

Daily Weather History Graph

Search for Another Location

Airport:

Trip Planner

Search our weather history database for the weather conditions in past years. The results will help you decide how hot, cold, wet, or windy it might be!

Date:

Astronomy

Feb. 02, 2013 Rise Set
Actual Time 7:40 AM GMT 5:08 PM GMT
Civil Twilight 7:06 AM GMT 5:42 PM GMT
Nautical Twilight 6:28 AM GMT 6:20 PM GMT
Astronomical Twilight 5:50 AM GMT 6:58 PM GMT
Moon No Moon Rise 10:00 AM GMT (2/2)
Length of Visible Light 10h 36m
Length of Day
9h 27m
Waning Gibbous, 62% of the Moon is Illuminated
Feb 2
Waning Gibbous
Feb 3
Last Quarter
Feb 10
New
Feb 17
First Quarter
Feb 25
Full

Hourly Weather History & Observations

Time (GMT) Temp. Windchill Dew Point Humidity Pressure Visibility Wind Dir Wind Speed Gust Speed Precip Events Conditions
12:00 AM 44 °F - 41 °F 84% 29.66 in 16 mi NW 24.2 mph - - Rain Light Rain Showers
3:00 AM 45 °F - 40 °F 78% 29.77 in 19 mi NNW 24.2 mph - - Rain Light Rain Showers
3:50 AM 44.6 °F 35.9 °F 39.2 °F 81% 29.80 in 6.2 mi NNW 23.0 mph - N/A   Mostly Cloudy
4:20 AM 44.6 °F 36.1 °F 39.2 °F 81% 29.83 in 6.2 mi NNW 21.9 mph - N/A   Mostly Cloudy
4:50 AM 44.6 °F 35.9 °F 39.2 °F 81% 29.86 in 6.2 mi NNW 23.0 mph - N/A   Mostly Cloudy
5:20 AM 44.6 °F 35.7 °F 37.4 °F 76% 29.86 in 6.2 mi NNW 24.2 mph - N/A   Mostly Cloudy
5:50 AM 42.8 °F 33.8 °F 35.6 °F 76% 29.89 in 6.2 mi North 21.9 mph 34.5 mph N/A   Mostly Cloudy
6:00 AM 43 °F - 36 °F 69% 29.91 in 28 mi North 21.9 mph - - Rain Light Rain Showers
6:20 AM 42.8 °F 34.0 °F 33.8 °F 70% 29.92 in 6.2 mi North 20.7 mph 32.2 mph N/A   Mostly Cloudy
6:50 AM 42.8 °F 34.3 °F 33.8 °F 70% 29.92 in 6.2 mi North 19.6 mph 32.2 mph N/A   Mostly Cloudy
7:20 AM 42.8 °F 34.0 °F 33.8 °F 70% 29.95 in 6.2 mi North 20.7 mph - N/A   Scattered Clouds
7:50 AM 41.0 °F 30.9 °F 30.2 °F 65% 29.98 in 6.2 mi NNW 24.2 mph - N/A   Partly Cloudy
8:20 AM 41.0 °F 32.2 °F 32.0 °F 70% 29.98 in 6.2 mi North 18.4 mph - N/A   Scattered Clouds
8:50 AM 41.0 °F 31.6 °F 33.8 °F 76% 30.01 in 6.2 mi North 20.7 mph - N/A   Scattered Clouds
9:00 AM 42 °F - 33 °F 62% 30.03 in 31 mi North 20.7 mph - - Rain Light Rain Showers
9:20 AM 42.8 °F 34.0 °F 33.8 °F 70% 30.04 in 6.2 mi North 20.7 mph - N/A   Scattered Clouds
9:50 AM 42.8 °F 34.3 °F 33.8 °F 70% 30.04 in 6.2 mi North 19.6 mph 31.1 mph N/A   Partly Cloudy
10:20 AM 41.0 °F 31.6 °F 35.6 °F 81% 30.06 in 6.2 mi North 20.7 mph - N/A   Partly Cloudy
10:50 AM 42.8 °F 34.0 °F 35.6 °F 76% 30.09 in 6.2 mi North 20.7 mph - N/A   Partly Cloudy
11:20 AM 42.8 °F 34.8 °F 35.6 °F 76% 30.09 in 6.2 mi North 17.3 mph - N/A   Scattered Clouds
11:50 AM 42.8 °F 35.1 °F 35.6 °F 76% 30.12 in 6.2 mi NNW 16.1 mph - N/A   Scattered Clouds
12:00 PM 43 °F - 36 °F 67% 30.15 in 34 mi NNW 16.1 mph - -   Partly Cloudy
12:20 PM 42.8 °F 35.1 °F 35.6 °F 76% 30.12 in 6.2 mi North 16.1 mph - N/A   Scattered Clouds
12:50 PM 42.8 °F 34.5 °F 35.6 °F 76% 30.12 in 6.2 mi NNW 18.4 mph - N/A   Partly Cloudy
1:20 PM 42.8 °F 35.1 °F 35.6 °F 76% 30.15 in 6.2 mi NNW 16.1 mph - N/A   Partly Cloudy
1:50 PM 42.8 °F 35.1 °F 33.8 °F 70% 30.15 in 6.2 mi NNW 16.1 mph - N/A   Partly Cloudy
2:20 PM 42.8 °F 34.8 °F 33.8 °F 70% 30.15 in 6.2 mi NNW 17.3 mph - N/A   Partly Cloudy
2:50 PM 42.8 °F 34.8 °F 33.8 °F 70% 30.18 in 6.2 mi NNW 17.3 mph - N/A   Partly Cloudy
3:00 PM 43 °F - 34 °F 62% 30.19 in 40 mi NNW 17.3 mph - -   Scattered Clouds
3:20 PM 42.8 °F 35.4 °F 33.8 °F 70% 30.18 in 6.2 mi NNW 15.0 mph - N/A   Partly Cloudy
3:50 PM 42.8 °F 35.1 °F 32.0 °F 66% 30.18 in 6.2 mi North 16.1 mph - N/A   Partly Cloudy
4:20 PM 42.8 °F 35.8 °F 33.8 °F 70% 30.21 in 6.2 mi NNW 13.8 mph - N/A   Partly Cloudy
4:50 PM 41.0 °F 33.5 °F 32.0 °F 70% 30.21 in 6.2 mi NNW 13.8 mph - N/A   Partly Cloudy
5:20 PM 41.0 °F 32.8 °F 32.0 °F 70% 30.24 in 6.2 mi NNW 16.1 mph - N/A   Partly Cloudy
5:50 PM 41.0 °F 33.5 °F 32.0 °F 70% 30.24 in 6.2 mi NNW 13.8 mph - N/A   Partly Cloudy
6:00 PM 42 °F - 32 °F 56% 30.27 in 40 mi NNW 13.8 mph - -   Scattered Clouds
6:20 PM 41.0 °F 33.9 °F 30.2 °F 65% 30.24 in 6.2 mi NNW 12.7 mph - N/A   Partly Cloudy
6:50 PM 41.0 °F 33.9 °F 32.0 °F 70% 30.27 in 6.2 mi North 12.7 mph - N/A   Mostly Cloudy
7:20 PM 41.0 °F 34.7 °F 32.0 °F 70% 30.27 in 6.2 mi North 10.4 mph - N/A   Scattered Clouds
7:50 PM 41.0 °F 33.9 °F 30.2 °F 65% 30.27 in 6.2 mi NNW 12.7 mph - N/A   Partly Cloudy
8:20 PM 41.0 °F 34.7 °F 30.2 °F 65% 30.27 in 6.2 mi North 10.4 mph - N/A   Partly Cloudy
8:50 PM 41.0 °F 34.7 °F 30.2 °F 65% 30.27 in 6.2 mi NNW 10.4 mph - N/A   Partly Cloudy
9:00 PM 40 °F - 31 °F 59% 30.30 in 40 mi NNW 10.4 mph - -   Scattered Clouds